STARLINK-32322, 61720

Orbit data source: Space-Track

STARLINK-32322, 61720 is a payload satellite owned by SpaceX/Seattle (US) in LEO that was launched on Wed, 30 Oct 2024 UTC via an FALCON 9 launch vehicle from the Air Force Eastern Test Range (AFETR). Payload-class satellites include a variety of spacecraft equipped with specific instruments for various scientific and technological missions. These include communications satellites like Starlink; space stations such as the ISS; scientific satellites like the Hubble; Earth observation satellites from companies like Planet Labs, Umbra, and HawkEye 360; GPS; miniature CubeSats for education and research; and military/defense satellites.

Loading next visibility...
Identifier
61720, 2024-196P
Orbit
LEO
Country
Flag of USUS
Related business
Manufacturer
SpaceX/Seattle
Mission
Operational Commercial Communications
Bus & Motor
STARLINK V2M, Unknown motor
Mass
730 kg wet, ~700 kg dry
Launch date (UTC)
2024-10-30 (11 months ago)
Launch vehicle
FALCON 9
Launch site
Air Force Eastern Test Range (AFETR)
Object type
Payload
Rocket body
Debris
Shape & HBR
Box + 2 Pan, 14.5 m
Radar Cross Section
36.964 m², Large (>1 m²)

Expand to show TLE details & history
Last TLE update: 12 hours ago

TLE from 12 hours ago
0 STARLINK-32322
1 61720U 24196P   25258.52503367  .00000949  00000-0  44148-4 0  9998
2 61720  53.1589 195.2794 0001233  93.3380 266.7762 15.30201069 50335
Epoch: 2025-09-15T12:36Z
TLE epoch observation values (Epoch: 2025-09-15T12:36:02.909Z)
Latitude
0.00001°
Longitude
11.53885°
Altitude
476.159 km
Speed
7.629 km/s
True Right ascension
13h 01m 07s
True Declination
0° 00' 00"
Sunlit
Object was in daylight at epoch
Visualization orbit readout
Latitude
Unknown
Longitude
Unknown
Altitude
Unknown
Speed
Unknown
Apparent Right ascension
Unknown
Apparent Declination
Unknown
Sunlit
N/A
Visualization observer readout
Local Sidereal Time
17:10:50
Azimuth
Unknown
Elevation
Unknown
Doppler factor
Unknown
Orbital elements
Apogee altitude
476.314 km
Perigee altitude
474.623 km
Semi-major axis
6,853.605 km
Eccentricity
0.00012
Inclination
53.1589°
RAAN
195.2794°
Arg. of periapsis
93.338°
True anomaly
266.76209°
Mean anomaly
266.7762°
Eccentric anomaly
266.76915°
Mean motion
3.82529 °/min
Orbital period
94.11 mins
BSTAR
0.000044148
Loading maneuver chart data...
Computing Atmospheric mass density...
Loading historical data...
Loading historical data...
Loading historical data...
Loading historical data...
Loading historical data...
Loading historical data...
Loading historical data...

Documentation

Showing up to 5 results
|